FW7370 Weather Reports


time (UTC)temp
C
wind
direction
speed
KPH
gust
KPH
rain 1hr
cm
rain 24hr
cm
rain mn
cm
humidity
%
barometer
mb
20260507070700 -17 100 12.9 19.3 0.00 0.00 0.00 1025.8
20260507070200 -17 82 8.0 19.3 0.00 0.00 0.00 1025.5
20260507065700 -17 95 6.4 19.3 0.00 0.00 0.00 1025.8
20260507065200 -17 104 8.0 17.7 0.00 0.00 0.00 1025.7
20260507064700 -17 94 8.0 17.7 0.00 0.00 0.00 1025.6
20260507064200 -17 96 9.7 17.7 0.00 0.00 0.00 1025.8
20260507063700 -17 75 6.4 17.7 0.00 0.00 0.00 1025.6
20260507062644 -17 100 8.0 17.7 0.00 0.00 0.00 1025.8
20260507062143 -17 114 11.3 17.7 0.00 0.00 0.00 1025.9
20260507061128 -17 101 4.8 17.7 0.00 0.00 0.00 1026.2
20260507060628 -17 73 3.2 17.7 0.00 0.00 0.00 1026.2
20260507060128 -17 88 4.8 17.7 0.00 0.00 0.00 1026.2
20260507055627 -17 92 4.8 17.7 0.00 0.00 0.00 1026.0
20260507055127 -17 88 4.8 17.7 0.00 0.00 0.00 1026.3
20260507054627 -17 102 6.4 17.7 0.00 0.00 0.00 1026.5
20260507054127 -17 102 6.4 19.3 0.00 0.00 0.00 1026.6
20260507053627 -17 74 6.4 19.3 0.00 0.00 0.00 1026.2
20260507051542 -17 109 12.9 22.5 0.00 0.00 0.00 1026.7
20260507051042 -17 95 8.0 19.3 0.00 0.00 0.00 1026.4
20260507050542 -17 93 9.7 19.3 0.00 0.00 0.00 1026.6
20260507045527 -17 18 8.0 19.3 0.00 0.00 0.00 1026.6
20260507045026 -17 86 8.0 19.3 0.00 0.00 0.00 1027.3
20260507044526 -17 92 6.4 19.3 0.00 0.00 0.00 1027.2
20260507044026 -17 86 4.8 19.3 0.00 0.00 0.00 1026.9
20260507043526 -17 90 4.8 19.3 0.00 0.00 0.00 1027.3
20260507043026 -17 72 9.7 19.3 0.00 0.00 0.00 1027.0
20260507042527 -17 95 6.4 19.3 0.00 0.00 0.00 1027.3
20260507042026 -17 57 6.4 19.3 0.00 0.00 0.00 1027.4
20260507041526 -17 38 4.8 20.9 0.00 0.00 0.00 1027.2
20260507041026 -17 54 6.4 20.9 0.00 0.00 0.00 1027.4
20260507035456 -17 66 4.8 20.9 0.00 0.00 0.00 1027.3
20260507034956 -17 77 4.8 20.9 0.00 0.00 0.00 1027.6
20260507034456 -17 78 4.8 20.9 0.00 0.00 0.00 1027.6
20260507033441 -17 88 8.0 22.5 0.00 0.00 0.00 1027.6
20260507032426 -17 106 14.5 22.5 0.00 0.00 0.00 1027.7
20260507031926 -17 96 12.9 22.5 0.00 0.00 0.00 1027.6
20260507031426 -17 103 9.7 20.9 0.00 0.00 0.00 1027.7
20260507030926 -17 97 9.7 20.9 0.00 0.00 0.00 1027.6
20260507030426 -17 90 8.0 24.1 0.00 0.00 0.00 1027.7
20260507025926 -17 94 9.7 24.1 0.00 0.00 0.00 1028.1
20260507025426 -17 98 9.7 24.1 0.00 0.00 0.00 1027.9
20260507024926 -17 66 9.7 24.1 0.00 0.00 0.00 1027.9
20260507024426 -17 109 12.9 24.1 0.00 0.00 0.00 1028.2
20260507023926 -17 100 8.0 19.3 0.00 0.00 0.00 1028.1
20260507023426 -17 95 4.8 17.7 0.00 0.00 0.00 1027.8
20260507022926 -17 37 6.4 17.7 0.00 0.00 0.00 1027.7
20260507021910 -17 97 4.8 17.7 0.00 0.00 0.00 1027.9
20260507021410 -17 29 9.7 17.7 0.00 0.00 0.00 1027.5
20260507020910 -17 78 6.4 17.7 0.00 0.00 0.00 1028.0
20260507020410 -17 46 6.4 17.7 0.00 0.00 0.00 1027.7
20260507015910 -17 85 4.8 17.7 0.00 0.00 0.00 1027.9
20260507015410 -17 79 8.0 19.3 0.00 0.00 0.00 1027.9
20260507014910 -17 38 9.7 19.3 0.00 0.00 0.00 1027.6
20260507014410 -17 90 9.7 19.3 0.00 0.00 0.00 1027.7
20260507013910 -17 79 9.7 19.3 0.00 0.00 0.00 1027.6
20260507013410 -17 72 9.7 19.3 0.00 0.00 0.00 1027.6
20260507012910 -17 81 6.4 17.7 0.00 0.00 0.00 1027.5
20260507012410 -17 61 6.4 17.7 0.00 0.00 0.00 1027.8
20260507011355 -17 79 6.4 17.7 0.00 0.00 0.00 1027.9
20260507010340 -17 41 3.2 17.7 0.00 0.00 0.00 1027.4
20260507005840 -17 58 4.8 17.7 0.00 0.00 0.00 1027.1
20260507005340 -17 82 6.4 17.7 0.00 0.00 0.00 1027.2
20260507004839 -17 71 8.0 17.7 0.00 0.00 0.00 1027.4
20260507004339 -17 91 9.7 17.7 0.00 0.00 0.00 1027.1
20260507003839 -17 102 4.8 17.7 0.00 0.00 0.00 1027.4
20260507002824 -17 71 6.4 22.5 0.00 0.00 0.00 1027.1
20260507002323 -17 87 8.0 24.1 0.00 0.00 0.00 1027.0
20260507001822 -17 84 9.7 24.1 0.00 0.00 0.00 1027.0
20260507001322 -17 106 14.5 22.5 0.00 0.00 0.00 1026.9
20260507000822 -17 101 12.9 19.3 0.00 0.00 0.00 1027.2
20260507000322 -17 101 8.0 19.3 0.00 0.00 0.00 1027.0
20260506235822 -17 91 9.7 19.3 0.00 0.00 0.00 1026.8
20260506235322 -17 85 9.7 22.5 0.00 0.00 0.00 1026.8
20260506234305 -17 87 8.0 22.5 0.00 0.00 0.00 1026.6
20260506233805 -17 121 11.3 22.5 0.00 0.00 0.00 1026.4
20260506233305 -17 65 6.4 22.5 0.00 0.00 0.00 1026.5
20260506232805 -17 87 11.3 22.5 0.00 0.00 0.00 1026.4
20260506232306 -17 96 9.7 22.5 0.00 0.00 0.00 1026.4
20260506231805 -17 102 11.3 20.9 0.00 0.00 0.00 1026.1
20260506231305 -17 112 9.7 20.9 0.00 0.00 0.00 1026.2
20260506230804 -17 85 8.0 20.9 0.00 0.00 0.00 1026.1
20260506230304 -17 84 11.3 19.3 0.00 0.00 0.00 1026.3
20260506225803 -17 114 14.5 19.3 0.00 0.00 0.00 1026.3
20260506225305 -17 105 12.9 19.3 0.00 0.00 0.00 1026.2
20260506224247 -17 75 8.0 20.9 0.00 0.00 0.00 1025.8
20260506223747 -17 108 12.9 20.9 0.00 0.00 0.00 1025.7
20260506223247 -17 91 9.7 20.9 0.00 0.00 0.00 1025.7
20260506222232 -17 80 11.3 20.9 0.00 0.00 0.00 1025.8
20260506221732 -17 97 12.9 24.1 0.00 0.00 0.00 1025.5
20260506220716 -17 52 9.7 25.7 0.00 0.00 0.00 1025.5
20260506215144 -17 102 11.3 22.5 0.00 0.00 0.00 1025.8
20260506214644 -17 83 8.0 22.5 0.00 0.00 0.00 1025.4
20260506213627 -17 103 12.9 27.4 0.00 0.00 0.00 1025.3
20260506213127 -17 105 11.3 20.9 0.00 0.00 0.00 1025.5
20260506212111 -17 87 12.9 25.7 0.00 0.00 0.00 1025.3
20260506211611 -17 86 9.7 30.6 0.00 0.00 0.00 1025.5
20260506211111 -17 88 12.9 30.6 0.00 0.00 0.00 1025.2
20260506210056 -17 126 14.5 24.1 0.00 0.00 0.00 1025.3
20260506205556 -17 110 14.5 25.7 0.00 0.00 0.00 1025.3
20260506205056 -17 119 14.5 32.2 0.00 0.00 0.00 1025.5
20260506204556 -17 117 16.1 25.7 0.00 0.00 0.00 1025.3
20260506204056 -17 109 16.1 27.4 0.00 0.00 0.00 1025.1
20260506203556 -17 104 9.7 27.4 0.00 0.00 0.00 1025.1
20260506203056 -17 90 12.9 24.1 0.00 0.00 0.00 1025.1
20260506202556 -17 111 12.9 24.1 0.00 0.00 0.00 1025.1
20260506202056 -17 111 12.9 30.6 0.00 0.00 0.00 1025.2
20260506201556 -17 113 12.9 30.6 0.00 0.00 0.00 1025.2
20260506201057 -17 123 14.5 30.6 0.00 0.00 0.00 1025.3
20260506200556 -17 112 17.7 30.6 0.00 0.00 0.00 1025.3
20260506200057 -17 114 19.3 27.4 0.00 0.00 0.00 1025.2
20260506195556 -17 105 12.9 25.7 0.00 0.00 0.00 1025.5
20260506194540 -17 104 16.1 27.4 0.00 0.00 0.00 1025.4
20260506193525 -17 108 17.7 30.6 0.00 0.00 0.00 1025.6
20260506193025 -17 108 12.9 30.6 0.00 0.00 0.00 1025.6
20260506192525 -17 114 16.1 25.7 0.00 0.00 0.00 1025.6
20260506192026 -17 108 12.9 25.7 0.00 0.00 0.00 1025.6
20260506191526 -17 119 14.5 25.7 0.00 0.00 0.00 1025.7
20260506191025 -17 120 16.1 24.1 0.00 0.00 0.00 1025.7
20260506190524 -17 113 14.5 25.7 0.00 0.00 0.00 1025.7
20260506190024 -17 97 14.5 25.7 0.00 0.00 0.00 1025.7
20260506185524 -17 107 11.3 25.7 0.00 0.00 0.00 1025.7
20260506185024 -17 108 17.7 25.7 0.00 0.00 0.00 1026.0
20260506184525 -17 111 16.1 24.1 0.00 0.00 0.00 1026.0
20260506184025 -17 101 12.9 27.4 0.00 0.00 0.00 1026.4
20260506182454 -17 129 19.3 32.2 0.00 0.00 0.00 1026.7
20260506181954 -17 124 17.7 30.6 0.00 0.00 0.00 1026.1
20260506181453 -17 122 16.1 25.7 0.00 0.00 0.00 1026.6
20260506180954 -17 123 17.7 33.8 0.00 0.00 0.00 1026.5
20260506180454 -17 117 16.1 33.8 0.00 0.00 0.00 1026.3
20260506175953 -17 126 19.3 30.6 0.00 0.00 0.00 1026.4
20260506175454 -17 126 20.9 30.6 0.00 0.00 0.00 1026.8
20260506174954 -17 130 17.7 25.7 0.00 0.00 0.00 1026.4
20260506174454 -17 122 17.7 30.6 0.00 0.00 0.00 1026.8
20260506173954 -17 131 17.7 30.6 0.00 0.00 0.00 1026.4
20260506173454 -17 122 19.3 32.2 0.00 0.00 0.00 1026.8
20260506172953 -17 115 22.5 32.2 0.00 0.00 0.00 1027.0
20260506172454 -17 126 20.9 37.0 0.00 0.00 0.00 1026.9
20260506171954 -17 123 16.1 30.6 0.00 0.00 0.00 1027.2
20260506171453 -17 114 17.7 25.7 0.00 0.00 0.00 1027.2
20260506170953 -17 119 17.7 24.1 0.00 0.00 0.00 1027.0
20260506165937 -17 125 12.9 30.6 0.00 0.00 0.00 1027.3
20260506165436 -17 119 14.5 30.6 0.00 0.00 0.00 1027.4
20260506164936 -17 100 14.5 27.4 0.00 0.00 0.00 1027.4
20260506164436 -17 133 17.7 25.7 0.00 0.00 0.00 1027.7
20260506163935 -17 115 16.1 24.1 0.00 0.00 0.00 1027.3
20260506163435 -17 129 16.1 27.4 0.00 0.00 0.00 1027.3
20260506162935 -17 127 17.7 27.4 0.00 0.00 0.00 1027.3
20260506162435 -17 115 17.7 38.6 0.00 0.00 0.00 1027.4
20260506161935 -17 119 16.1 38.6 0.00 0.00 0.00 1027.5
20260506160919 -17 121 20.9 32.2 0.00 0.00 0.00 1027.6
20260506160419 -17 122 22.5 30.6 0.00 0.00 0.00 1027.5
20260506155919 -17 118 16.1 27.4 0.00 0.00 0.00 1027.9
20260506155419 -17 128 12.9 27.4 0.00 0.00 0.00 1027.8
20260506154919 -17 108 12.9 27.4 0.00 0.00 0.00 1028.2
20260506154419 -17 125 16.1 27.4 0.00 0.00 0.00 1027.8
20260506153919 -17 116 17.7 27.4 0.00 0.00 0.00 1028.0
20260506153418 -17 123 14.5 32.2 0.00 0.00 0.00 1027.9
20260506152918 -17 138 14.5 32.2 0.00 0.00 0.00 1028.3
20260506152417 -17 114 16.1 30.6 0.00 0.00 0.00 1028.3
20260506151917 -17 125 16.1 32.2 0.00 0.00 0.00 1028.2
20260506150901 -17 115 16.1 25.7 0.00 0.00 0.00 1028.3
20260506150401 -17 118 14.5 25.7 0.00 0.00 0.00 1028.0
20260506145900 -17 110 9.7 30.6 0.00 0.00 0.00 1028.2
20260506145400 -17 131 19.3 27.4 0.00 0.00 0.00 1028.2
20260506144900 -17 112 16.1 30.6 0.00 0.00 0.00 1028.2
20260506144400 -17 125 12.9 30.6 0.00 0.00 0.00 1028.2
20260506143344 -17 109 12.9 27.4 0.00 0.00 0.00 1028.3
20260506142844 -17 112 16.1 25.7 0.00 0.00 0.00 1028.3
20260506142344 -17 113 19.3 22.5 0.00 0.00 0.00 1028.1
20260506141329 -17 115 19.3 35.4 0.00 0.00 0.00 1028.1
20260506140829 -17 109 14.5 27.4 0.00 0.00 0.00 1027.9
20260506135813 -17 135 16.1 25.7 0.00 0.00 0.00 1028.0
20260506135313 -17 109 17.7 27.4 0.00 0.00 0.00 1028.3
20260506134813 -17 104 16.1 32.2 0.00 0.00 0.00 1028.3
20260506134313 -17 116 19.3 33.8 0.00 0.00 0.00 1028.3
20260506133257 -17 108 12.9 27.4 0.00 0.00 0.00 1028.2
20260506132757 -17 113 12.9 24.1 0.00 0.00 0.00 1028.3
20260506132256 -17 99 14.5 24.1 0.00 0.00 0.00 1028.2
20260506131756 -17 83 11.3 27.4 0.00 0.00 0.00 1028.3
20260506131256 -17 109 17.7 32.2 0.00 0.00 0.00 1028.4
20260506130756 -17 113 14.5 32.2 0.00 0.00 0.00 1028.3
20260506130256 -17 101 20.9 30.6 0.00 0.00 0.00 1028.2
20260506125756 -17 76 12.9 22.5 0.00 0.00 0.00 1028.0
20260506125255 -17 94 14.5 27.4 0.00 0.00 0.00 1027.9
20260506124755 -17 98 14.5 27.4 0.00 0.00 0.00 1028.1
20260506124255 -17 108 12.9 30.6 0.00 0.00 0.00 1027.9
20260506123755 -17 107 19.3 30.6 0.00 0.00 0.00 1028.0
20260506123254 -17 90 11.3 24.1 0.00 0.00 0.00 1027.8
20260506122238 -17 118 11.3 30.6 0.00 0.00 0.00 1028.0
20260506120708 -17 83 9.7 25.7 0.00 0.00 0.00 1028.0
20260506120208 -17 109 14.5 27.4 0.00 0.00 0.00 1027.9
20260506115708 -17 108 12.9 27.4 0.00 0.00 0.00 1027.6
20260506115208 -17 125 17.7 27.4 0.00 0.00 0.00 1027.8
20260506114708 -17 115 20.9 25.7 0.00 0.00 0.00 1027.7
20260506114208 -17 89 14.5 27.4 0.00 0.00 0.00 1027.5
20260506113707 -17 93 11.3 27.4 0.00 0.00 0.00 1027.6
20260506113207 -17 112 14.5 24.1 0.00 0.00 0.00 1027.5
20260506112707 -17 110 11.3 22.5 0.00 0.00 0.00 1027.6
20260506112207 -17 114 12.9 25.7 0.00 0.00 0.00 1027.3
20260506111706 -17 109 16.1 25.7 0.00 0.00 0.00 1027.3
20260506111206 -17 90 8.0 19.3 0.00 0.00 0.00 1027.4
20260506110706 -17 83 8.0 20.9 0.00 0.00 0.00 1027.3
20260506105650 -17 96 11.3 19.3 0.00 0.00 0.00 1027.2
20260506105150 -17 47 8.0 19.3 0.00 0.00 0.00 1027.1
20260506104650 -17 77 8.0 19.3 0.00 0.00 0.00 1026.9
20260506104150 -17 104 9.7 19.3 0.00 0.00 0.00 1027.2
20260506103650 -17 70 8.0 19.3 0.00 0.00 0.00 1027.1
20260506102634 -17 88 8.0 19.3 0.00 0.00 0.00 1026.9
20260506102134 -17 90 9.7 19.3 0.00 0.00 0.00 1026.7
20260506101633 -17 72 6.4 19.3 0.00 0.00 0.00 1026.5
20260506101133 -17 78 6.4 19.3 0.00 0.00 0.00 1026.9
20260506100633 -17 75 6.4 19.3 0.00 0.00 0.00 1026.8
20260506095617 -17 96 8.0 20.9 0.00 0.00 0.00 1027.1
20260506095117 -17 77 8.0 20.9 0.00 0.00 0.00 1026.7
20260506094617 -17 86 8.0 20.9 0.00 0.00 0.00 1026.5
20260506094117 -17 76 8.0 20.9 0.00 0.00 0.00 1026.5
20260506093617 -17 52 8.0 24.1 0.00 0.00 0.00 1026.7
20260506093117 -17 93 11.3 24.1 0.00 0.00 0.00 1026.7
20260506092617 -17 90 11.3 20.9 0.00 0.00 0.00 1026.7
20260506092117 -17 81 8.0 20.9 0.00 0.00 0.00 1026.6
20260506091617 -17 67 8.0 20.9 0.00 0.00 0.00 1026.8
20260506091117 -17 66 11.3 20.9 0.00 0.00 0.00 1026.5
20260506085602 -17 72 11.3 20.9 0.00 0.00 0.00 1026.6
20260506084547 -17 111 12.9 24.1 0.00 0.00 0.00 1026.3
20260506084047 -17 111 12.9 24.1 0.00 0.00 0.00 1026.2
20260506083546 -17 82 9.7 24.1 0.00 0.00 0.00 1026.6
20260506083046 -17 87 12.9 27.4 0.00 0.00 0.00 1026.4
20260506082546 -17 98 14.5 27.4 0.00 0.00 0.00 1026.2
20260506082046 -17 118 19.3 27.4 0.00 0.00 0.00 1026.4
20260506081031 -17 79 9.7 22.5 0.00 0.00 0.00 1026.6
20260506073515 -17 115 14.5 24.1 0.00 0.00 0.00 1026.0
20260506073015 -17 110 12.9 27.4 0.00 0.00 0.00 1025.9
20260506072515 -17 106 16.1 27.4 0.00 0.00 0.00 1026.2
20260506072015 -17 116 19.3 27.4 0.00 0.00 0.00 1025.9
20260506071515 -17 92 11.3 27.4 0.00 0.00 0.00 1026.2
20260506071015 -17 93 12.9 27.4 0.00 0.00 0.00 1026.2